Home > Weather > Merida > Past weeks

Flag for Mexico Weather for the Past 2 Weeks in Merida, Yucatán, Mexico

Now
95 °F

Partly sunny.


Feels Like: 103 °F
Forecast: 79 / 103 °F
Wind: 21 mph from South

Location: Aerop. Internacional Merida - Yuc

Current Time: May 1, 2016 at 12:28:38 PM

Latest Report: May 1, 2016 at 11:45 AM


Visibility: 7 mi

Pressure: 29.80 "Hg

Humidity: 47%

Dew Point: 72 °F

Location of MeridaLocation

Historic Weather in Merida — Graph

°F

Merida Temperature Yesterday

Maximum temperature yesterday: 100 °F (at 4:41 PM)
Minimum temperature yesterday: 81 °F (at 2:45 AM)
Average temperature yesterday: 88 °F

High & Low Weather Summary for the Past Weeks

 TemperatureHumidityPressure
High104 °F (Apr 27, 2:48 PM)89% (Apr 17, 5:49 AM)30.04 "Hg (Apr 17, 5:49 AM)
Low72 °F (Apr 21, 4:52 AM)23% (Apr 28, 5:46 PM)29.64 "Hg (Apr 30, 4:41 PM)
Average85 °F62%29.86 "Hg
* Reported Apr 16 10:46 AM — May 1 10:48 AM, Merida, Weather by CustomWeather, © 2016

Note: Actual official high and low records may vary slightly from our data, if they occured in-between our weather recording intervals... More about our weather records

Advertising

Merida Weather History for the Previous 24 Hours

Scroll right to see more
 ConditionsComfort  
Time TempWeatherWind HumidityBarometerVisibility
10:48 AM
Sun, May 1
93 °FBroken clouds.20 mph49%29.82 "Hg7 mi
9:46 AM88 °FPartly sunny.18 mph62%29.82 "Hg7 mi
8:46 AM84 °FPartly sunny.14 mph74%29.83 "Hg7 mi
7:45 AM81 °FScattered clouds.16 mph84%29.82 "Hg7 mi
6:45 AM77 °FPassing clouds.13 mph89%29.81 "Hg6 mi
5:58 AM79 °FClear.12 mph89%29.79 "Hg7 mi
4:50 AM79 °FClear.9 mph84%29.78 "Hg7 mi
3:51 AM79 °FClear.9 mph84%29.79 "Hg7 mi
2:47 AM81 °FClear.9 mph79%29.78 "Hg7 mi
1:48 AM81 °FPassing clouds.13 mph74%29.79 "Hg7 mi
12:46 AM82 °FClear.13 mph70%29.79 "Hg7 mi
11:45 PM
Sat, Apr 30
84 °FClear.21 mph66%29.78 "Hg7 mi
10:46 PM86 °FClear.20 mph62%29.78 "Hg7 mi
9:44 PM88 °FClear.22 mph55%29.74 "Hg7 mi
8:41 PM91 °FHigh level clouds.16 mph49%29.72 "Hg7 mi
7:45 PM93 °FHigh level clouds.13 mph47%29.68 "Hg7 mi
6:43 PM95 °FOvercast.18 mph44%29.66 "Hg7 mi
5:41 PM99 °FOvercast.14 mph39%29.65 "Hg7 mi
4:41 PM100 °FOvercast.18 mph37%29.64 "Hg7 mi
3:50 PM99 °FOvercast.14 mph37%29.67 "Hg7 mi
2:47 PM99 °FPartly sunny.13 mph39%29.67 "Hg7 mi
1:44 PM99 °FScattered clouds.18 mph42%29.69 "Hg7 mi
12:47 PM97 °FSunny.16 mph44%29.75 "Hg7 mi
Weather by CustomWeather, © 2016

See weather overviewHow to use our weather pages